Location: Dresden
(51.0500°N, 13.7500°E)
Time: 14:04:18
(UTC+00:00)

ISS - Pass Details

Date: 27 March 2019
Orbit: 408 x 410 km, 51.6° (Epoch: 25 April)

Event Time Altitude Azimuth Distance (km) Brightness Sun altitude
Rises 19:08:33 0° 263° (W) 2,335 1.0 -15.8°
Reaches altitude 10° 19:10:38 10° 264° (W) 1,474 -0.1 -16.1°
Maximum altitude 19:13:56 83° 352° (N) 417 -3.8 -16.6°
Enters shadow 19:14:59 41° 77° (ENE) 611 -3.3 -16.7°
